sat.trackr.live / text

‹ back to catalog

STARLINK-31776

NORAD 59603 · 2024-080C

PAYLOAD ACTIVE UNKNOWN

§ Identity

Operator
Country
US
Launch date
2024-04-28
Launch site
AFETR
Launch vehicle
Mass (kg)
RCS (m²)

Purposes: comms

External: N2YO · Heavens-Above · Gunter

§ Orbital elements

Epoch: 2026-05-24T22:57:23.765184Z

Period
94.27 min
Inclination
43.0030°
Eccentricity
0.0001521
Mean motion
15.27596668 rev/d
Perigee alt
482.0 km
Apogee alt
484.0 km
Semi-major
6,861.1 km
B*
1.7071e-4
RAAN
330.9134°
Arg perigee
263.9982°
Mean anomaly
96.0697°
Rev number
11,615

§ Raw data

STARLINK-317761 59603U 24080C   26144.95652506  .00004440  00000+0  17071-3 0  99922 59603  43.0030 330.9134 0001521 263.9982  96.0697 15.27596668116152

JSON: /api/v1/satellites/59603 · /tle

For live sub-satellite position, see the globe view (requires WebGL).

§ Visibility from observer

Set your observer location to see the next 7 days of passes ≥ 10°. The values pass through the URL so the page stays shareable.

No JS? Fill the form by hand. The geolocation button needs JavaScript.